User: anonymous   Login
Location: Vanderbilt Beach
(26.2700°N, 81.7900°W)
Time: 07:02:41
(UTC-04:00)
Language:

SO-50 - Orbit

View from above orbital plane
View from above orbital plane
View from above satellite
View from above satellite

Ground track
Ground track

The orbit data is extracted from the following two-line orbital elements,

1 27607U 02058C   21170.67235084  .00000007  00000-0  21461-4 0  9998
2 27607  64.5559 331.5604 0040834  20.2695 340.0017 14.75758126994859
Epoch (UTC): 19 June 2021 16:08:11
Eccentricity: 0.0040834
inclination: 64.5559°
perigee height: 614 km
apogee height: 671 km
right ascension of ascending node: 331.5604°
argument of perigee: 20.2695°
revolutions per day: 14.75758126
mean anomaly at epoch: 340.0017°
orbit number at epoch: 99485

The dashed part of the orbit path shows where the satellite is in the earth's shadow,  

DLR